Regional Weather Roundup
Issued by NWS Bismarck, ND

Home | Current Version | Previous Version | Text Only | Print | Product List | Glossary On
Versions: 1 2 3 4 5 6 7 8 9 10 11 12 13 14 15 16 17 18 19 20 21 22 23 24 25 26 27 28 29 30 31 32 33 34 35 36 37 38 39 40 41 42 43 44 45 46 47 48 49 50
000
ASUS43 KBIS 150002
RWRBIS

NWR BROADCAST TEXT
NATIONAL WEATHER SERVICE BISMARCK ND
600 PM CST THU DEC 14 2017

NOTE: "FAIR" INDICATES FEW OR NO CLOUDS BELOW 12,000 FEET WITH NO
SIGNIFICANT WEATHER AND/OR OBSTRUCTIONS TO VISIBILITY.


CITY           SKY/WX    TMP DP  RH WIND       PRES   REMARKS
WILLISTON      FAIR      30  23  75 W5        30.11S
MINOT          CLOUDY    35  26  69 W20G26    30.04F
MINOT AFB      CLOUDY    33  24  69 NW18G24   30.02F
BISMARCK       CLOUDY    35  25  66 W10       30.09F
DICKINSON      FAIR      29  23  78 W9        30.07F
GARRISON         N/A     33  24  69 W9        30.06F
HETTINGER ARPT PTCLDY    25  20  81 W8        30.13F WCI  16
JAMESTOWN      CLOUDY    30  26  85 W12       30.03F
CARRINGTON     MOCLDY    30  28  93 W12       30.05S
HAZEN          CLOUDY    34  27  75 NW9       30.10F
LINTON           N/A     34  23  64 W9        30.10F
MANDAN         CLOUDY    34  25  69 W16       30.08F
OAKES            N/A     27  27 100 SW7       30.06F WCI  19
RUGBY          CLOUDY    30  30 100 NW15      30.01S FOG     WCI  19
STANLEY        CLOUDY    32  27  80 NW14G22   30.07S
TIOGA          CLOUDY    32  28  86 NW13      30.08S
WATFORD CITY     N/A     30  23  74 W7        30.10R
$$

CITY           SKY/WX    TMP DP  RH WIND       PRES   REMARKS
GRAND FORKS    FLURRIES  20  16  84 E6        30.05S WCI  12
GRAND FORKS AF FLURRIES  19  18  93 E6        30.04S WCI  11
DEVILS LAKE    CLOUDY    29  26  89 W9        30.01F
FARGO          CLOUDY    24  21  88 CALM      30.05F
CANDO          CLOUDY    30  30 100 W10       30.02S
CAVALIER       CLOUDY    19  18  93 CALM      30.04S
GRAFTON        CLOUDY    19  18  93 CALM      30.05F
GWINNER          N/A     27  25  93 W7        30.06F WCI  19
LANGDON        CLOUDY    25  27 100 N7        29.99S WCI  17
ROLLA          CLOUDY    28  28 100 NW12      29.99S WCI  18
WALHALLA       FAIR      21  21 100 CALM      30.04S
$$

CITY           SKY/WX    TMP DP  RH WIND       PRES   REMARKS
ABERDEEN       CLOUDY    26  25  96 SW7       30.10F WCI  18
MOBRIDGE       CLOUDY    35  25  66 NW9       30.09F
BUFFALO          N/A     29  22  75 W10       30.07F WCI  20
RAPID CITY     CLOUDY    33  20  58 NW12      30.20R
GLASGOW        CLOUDY    28  21  75 W8        30.12F WCI  20
SIDNEY         CLEAR     32  24  72 W12       30.13S
WOLF POINT     CLEAR     32  21  64 W9        30.14F
GLENDIVE       CLEAR     27  20  75 W12       30.14  WCI  17
MILES CITY     CLOUDY    30  21  69 W7        30.16F
BAKER          CLOUDY    27  22  81 W8        30.13F WCI  19
$$

CITY           SKY/WX    TMP DP  RH WIND       PRES   REMARKS
BILLINGS       CLOUDY    42  21  43 SW10      30.15F
GREAT FALLS    CLOUDY    36  20  52 SW21      30.11F
$$





USA.gov is the U.S. government's official web portal to all federal, state and local government web resources and services.